Hourly Data Report for August 29, 2021

ALGONQUIN PARK EAST GATE
ONTARIO
Current Station Operator: ECCC - MSC

45°32'00.000" N
78°16'00.000" W
397.00 m
6080192
71581
TNK

Download Data

Hourly Data (August 2021)
Hourly Data Report for August 29, 2021
TIME
LST
Temp Definition
°C
Dew Point Definition
°C
Rel Hum Definition
%
Precip. Amount Definition
mm

Wind Dir Definition
10's deg

Wind Spd Definition
km/h
Visibility Definition
km
Stn Press Definition
kPa
Hmdx Definition


Wind Chill Definition


Weather Definition


00:00 17.1 16.6 97 0.0   0   97.36     LegendNANA
01:00 17.0 16.5 97 0.0   0   97.27     LegendNANA
02:00 17.2 16.7 97 0.0   0   97.17     LegendNANA
03:00 17.6 17.0 96 0.0 0 1   97.12     LegendNANA
04:00 17.9 17.3 96 0.0   0   97.16     LegendNANA
05:00 18.1 17.5 96 0.0 12 1   97.18     LegendNANA
06:00 18.2 17.7 97 0.1 23 2   97.22     LegendNANA
07:00 19.6 19.0 96 4.1 0 1   97.20     LegendNANA
08:00 20.1 19.6 97 0.2 0 1   97.16 27   LegendNANA
09:00 21.9 20.6 93 0.0 23 4   97.13 30   LegendNANA
10:00 22.0 20.4 91 0.0 26 4   97.13 30   LegendNANA
11:00 21.9 20.6 93 0.3 12 2   96.98 30   LegendNANA
12:00 23.1 20.6 86 0.0 21 7   96.92 31   LegendNANA
13:00 24.5 20.3 77 0.0 23 6   96.85 32   LegendNANA
14:00 25.9 20.5 72 0.0 18 6   96.75 34   LegendNANA
15:00 27.5 21.1 68 0.0 21 4   96.66 36   LegendNANA
16:00 27.1 21.0 69 0.0 24 8   96.59 36   LegendNANA
17:00 26.0 22.2 79 0.0 26 3   96.63 36   LegendNANA
18:00 23.1 20.0 83 0.8 21 6   96.54 31   LegendNANA
19:00 21.2 20.3 95 2.0 16 1   96.53 29   LegendNANA
20:00 19.1 18.2 95 0.0   0   96.50     LegendNANA
21:00 19.1 18.6 97 2.2 23 6   96.60     LegendNANA
22:00 19.1 18.4 96 10.5 22 3   96.51     LegendNANA
23:00 19.0 18.3 96 3.1 22 2   96.42     LegendNANA

Notes on Data Quality.

Legend

  • E = Estimated
  • M = Missing
  • NA = Not Available*
  • [empty] = Indicates an unobserved value
Date modified: